[[{"header":{"parameterUnit":"m.s-1","parameterCategory":2,"la1":30.2991,"la2":30.254,"lo1":-89.0895,"lo2":-89.0444,"dy":0.0017,"dx":0.0017,"nx":28,"ny":28,"refTime":"2025-01-11T03:00:00:Z","depth":"0","parameterNumber":2,"parameterNumberName":"U-component_of_CURRENTS"},"data":[0,0,0,0,0,0,0,0,0,0,0,0,0,0,0,0,0,0,0,0,0,0,0,0,0,0,0,0,0,0,0,0,0,0,0,0,0,0,0,0,0,0,0,0,0,0,0,0,0,0,0,0,0,0,0,0,0,0,0.3533,0.3533,0,0.3528,0.3527,0.3527,0.3573,0.3575,0.3576,0.3577,0.357,0.3568,0.3567,0,0,0,0,0,0,0,0,0,0,0,0,0,0.3576,0.3575,0.3533,0.3533,0.3533,0.3528,0.3527,0.3527,0.3573,0.3575,0.3576,0.3578,0.357,0.3569,0.3567,0,0,0,0,0,0,0,0,0,0,0,0,0,0.3561,0.3575,0.3533,0.3557,0.3559,0.3528,0.3527,0.3527,0.3573,0.3575,0.3577,0.3579,0.3571,0.3569,0.3566,0.351,0,0,0.356,0.3559,0,0,0,0,0,0,0,0,0.3562,0.3559,0.3553,0.3555,0.3557,0.3555,0.354,0.3522,0.3572,0.3566,0.3577,0.358,0.3564,0.3562,0.3554,0.3509,0.3509,0.3559,0.3558,0.3557,0.3556,0,0,0,0,0,0,0,0.3563,0.356,0.353,0.3553,0.3556,0.3565,0.3565,0.3536,0.3552,0.3566,0.357,0.3571,0.3565,0.3557,0.3555,0.3509,0.3559,0.3557,0.3556,0.3555,0.3492,0.3491,0,0,0,0,0,0,0.3564,0.356,0.353,0.353,0.3567,0.3562,0.3563,0.3552,0.3552,0.3555,0.3569,0.3573,0.3559,0.3557,0.3555,0.3549,0.3557,0.3555,0.3554,0.3492,0.3492,0.3491,0,0,0,0,0,0,0.3565,0.3561,0.353,0.3547,0.3544,0.356,0.3547,0.3551,0.3553,0.3555,0.3558,0.357,0.3561,0.3558,0.3547,0.3547,0.3554,0.3552,0.3492,0.3492,0.3491,0.3499,0,0,0,0,0,0,0.3566,0.3561,0.3543,0.3547,0.3543,0.3511,0.3546,0.3549,0.355,0.3556,0.3555,0.3556,0.3562,0.355,0.3544,0.3544,0.355,0.3493,0.3492,0.3492,0.3499,0.3498,0.3498,0,0,0,0,0,0.3567,0.3517,0.3541,0.3538,0.3521,0.351,0.3508,0.3527,0.3548,0.3538,0.3552,0.3557,0.3543,0.3547,0.3541,0.354,0.3493,0.3492,0.3492,0.3499,0.3499,0.3498,0,0,0,0,0,0,0.3481,0.3518,0.3544,0.3497,0.3512,0.3519,0.3496,0.3521,0.3521,0.3526,0.3543,0.3543,0.3541,0.3529,0.3534,0.3521,0.3521,0.3519,0.3529,0.3528,0.3528,0.3554,0.3548,0,0,0,0,0,0.3466,0.3462,0.3492,0.3449,0.346,0.3483,0.3478,0.3498,0.3504,0.3507,0.3516,0.3521,0.3527,0.3521,0.3518,0.3492,0.3534,0.349,0.349,0.3489,0.3506,0.3579,0.3588,0.3489,0.3489,0.3489,0,0,0.3411,0.3435,0.3424,0.3436,0.3446,0.3457,0.3484,0.3472,0.3486,0.3501,0.3506,0.3517,0.3521,0.3515,0.3511,0.3507,0.3537,0.3489,0.3489,0.3506,0.3579,0.359,0.3599,0.3489,0.3489,0.3489,0,0,0.333,0.3333,0.333,0.3353,0.3385,0.3407,0.341,0.3433,0.3449,0.3454,0.3483,0.3499,0.3485,0.3506,0.3511,0.3498,0.3539,0.349,0.3501,0.3571,0.3581,0.359,0.3653,0.3668,0.3483,0.3483,0.3483,0,0.3271,0.3283,0.3315,0.3333,0.3354,0.3392,0.3404,0.3412,0.343,0.3459,0.3457,0.3501,0.3489,0.3523,0.3519,0.35,0.355,0.3503,0.3575,0.3585,0.3594,0.3657,0.3673,0.3483,0.3483,0.3483,0.3483,0,0.3225,0.3237,0.3225,0.3288,0.3303,0.3305,0.3353,0.3372,0.3404,0.344,0.3485,0.3486,0.3531,0.3514,0.3507,0.3562,0.358,0.3575,0.3583,0.3605,0.3668,0.3685,0.3484,0.3484,0.3483,0.3483,0,0,0.3108,0.3187,0.319,0.3231,0.3293,0.3299,0.3332,0.3392,0.3442,0.3459,0.3538,0.3526,0.3563,0.3572,0.3574,0.3608,0.3694,0.3614,0.3617,0.3689,0.3862,0.3792,0.3804,0.3713,0.3716,0.3718,0.3879,0,0.3081,0.3113,0.3168,0.3196,0.3223,0.3293,0.3331,0.3387,0.3443,0.3521,0.3558,0.3619,0.3575,0.3612,0.3641,0.3702,0.374,0.3652,0.3818,0.3823,0.377,0.3821,0.3607,0.3725,0.3896,0.3899,0.3901,0,0.3052,0.3088,0.3114,0.3206,0.3225,0.3245,0.3352,0.339,0.3508,0.3566,0.3647,0.3702,0.3776,0.373,0.385,0.3804,0.3831,0.3857,0.3864,0.3813,0.3785,0.373,0.375,0.3628,0.3927,0.3925,0.3923,0,0.2992,0.3059,0.3086,0.311,0.3205,0.3238,0.3291,0.34,0.3472,0.3611,0.3704,0.3799,0.387,0.3935,0.398,0.3941,0.4115,0.4074,0.4035,0.4031,0.3887,0.3864,0.3818,0.4154,0.4153,0.4153,0.4152,0,0.2961,0.2983,0.3057,0.3069,0.3123,0.3197,0.328,0.3357,0.3503,0.361,0.3721,0.3829,0.3926,0.4034,0.4054,0.4111,0.4185,0.4061,0.4075,0.3879,0.3855,0.3772,0.3735,0.4159,0.4157,0.4156,0.4155,0,0.2892,0.294,0.2979,0.3065,0.3093,0.3126,0.3271,0.3348,0.3485,0.364,0.3702,0.3891,0.4034,0.4121,0.4241,0.42,0.4136,0.4251,0.401,0.399,0.3802,0.3773,0.3686,0.3578,0.4248,0.4247,0.4247,0,0.286,0.2869,0.2953,0.2987,0.3023,0.3098,0.317,0.3316,0.3411,0.3667,0.3742,0.3943,0.4059,0.4223,0.42,0.4254,0.4126,0.407,0.3931,0.3781,0.3762,0.3638,0.3544,0.3751,0.3746,0.3742,0.3739,0,0.2809,0.2837,0.2878,0.2949,0.3009,0.3084,0.3186,0.3259,0.3451,0.3592,0.3771,0.389,0.4036,0.3994,0.4056,0.4049,0.3847,0.3993,0.3902,0.3426,0.3226,0.3131,0.3665,0.3706,0.3709,0.3712,0.3714,0.3715,0.2778,0.2799,0.2865,0.2926,0.299,0.3051,0.3078,0.3204,0.3335,0.3485,0.3673,0.3746,0.3783,0.3833,0.3814,0.3599,0.3633,0.3439,0.3442,0.335,0.3149,0.3609,0.3618,0.3621,0.3623,0.3625,0.3627,0,0.2763,0.2797,0.285,0.2913,0.2941,0.2997,0.3082,0.3083,0.3165,0.3305,0.3424,0.3418,0.3375,0.3365,0.3213,0.3054,0.2911,0.2959,0.2717,0.2673,0.3135,0.3011,0.2807,0.2807,0.2807,0.2807,0.2808,0.2808,0.2765,0.2804,0.283,0.2853,0.2879,0.2867,0.2877,0.2876,0.2921,0.291,0.2869,0.2928,0.3006,0.2964,0.2755,0.2668,0.2451,0.2312,0.2372,0.267,0.2714,0.2755,0.2626,0.2345,0.2345,0.1737,0.1733,0.1729]},{"header":{"parameterUnit":"m.s-1","parameterCategory":2,"la1":30.2991,"la2":30.254,"lo1":-89.0895,"lo2":-89.0444,"dy":0.0017,"dx":0.0017,"nx":28,"ny":28,"refTime":"2025-01-11T03:00:00:Z","depth":"0","parameterNumber":3,"parameterNumberName":"V-component_of_CURRENTS"},"data":[0,0,0,0,0,0,0,0,0,0,0,0,0,0,0,0,0,0,0,0,0,0,0,0,0,0,0,0,0,0,0,0,0,0,0,0,0,0,0,0,0,0,0,0,0,0,0,0,0,0,0,0,0,0,0,0,0,0,-0.0017,-0.0017,0,-0.0031,-0.0032,-0.0032,-0.0074,-0.0075,-0.0076,-0.0076,-0.0105,-0.0105,-0.0105,0,0,0,0,0,0,0,0,0,0,0,0,0,-0.0027,-0.0027,-0.0017,-0.0017,-0.0017,-0.0031,-0.0032,-0.0032,-0.0074,-0.0075,-0.0076,-0.0076,-0.0105,-0.0105,-0.0105,0,0,0,0,0,0,0,0,0,0,0,0,0,-0.0033,-0.0027,-0.0017,-0.0038,-0.0039,-0.0031,-0.0032,-0.0032,-0.0074,-0.0075,-0.0076,-0.0077,-0.0105,-0.0105,-0.0105,-0.0086,0,0,-0.0106,-0.0106,0,0,0,0,0,0,0,0,-0.0033,-0.0033,-0.0035,-0.0036,-0.0038,-0.005,-0.0046,-0.005,-0.0074,-0.0064,-0.0076,-0.0077,-0.0085,-0.0087,-0.0091,-0.0088,-0.0089,-0.0106,-0.0106,-0.0106,-0.0106,0,0,0,0,0,0,0,-0.0032,-0.0033,-0.0026,-0.0035,-0.0037,-0.0046,-0.0048,-0.0047,-0.0071,-0.0065,-0.0067,-0.0064,-0.0087,-0.0091,-0.0092,-0.0089,-0.0106,-0.0106,-0.0106,-0.0106,-0.0082,-0.0081,0,0,0,0,0,0,-0.0024,-0.0032,-0.0025,-0.0026,-0.0035,-0.0045,-0.0048,-0.0047,-0.0071,-0.0075,-0.0063,-0.0066,-0.009,-0.0092,-0.0093,-0.0061,-0.0106,-0.0106,-0.0106,-0.0082,-0.0081,-0.0081,0,0,0,0,0,0,-0.0024,-0.0023,-0.0025,-0.0027,-0.0028,-0.0043,-0.0043,-0.0047,-0.0053,-0.0069,-0.0074,-0.0065,-0.0091,-0.0093,-0.0085,-0.0063,-0.0106,-0.0106,-0.0083,-0.0082,-0.0081,-0.0005,0,0,0,0,0,0,-0.0024,-0.0023,-0.0015,-0.0026,-0.0027,-0.0008,-0.0042,-0.0046,-0.0048,-0.0052,-0.0072,-0.0076,-0.0092,-0.0084,-0.0085,-0.0065,-0.0107,-0.0084,-0.0083,-0.0081,-0.0008,-0.0001,0.0005,0,0,0,0,0,-0.0024,0.0002,-0.0014,-0.0013,-0.0017,-0.0006,-0.0007,-0.0024,-0.0047,-0.0037,-0.0054,-0.0075,-0.0076,-0.0083,-0.0084,-0.0064,-0.0085,-0.0083,-0.0081,-0.0011,-0.0003,0.0005,0,0,0,0,0,0,0.0018,-0.0,-0.0018,0.0004,0.0001,-0.0012,0.0002,-0.0019,-0.0025,-0.0031,-0.0059,-0.0062,-0.0048,-0.0066,-0.0074,-0.0054,-0.0086,-0.0085,-0.0033,-0.0025,-0.0018,-0.0003,-0.0107,0,0,0,0,0,0.0027,0.0031,0.0017,0.0037,0.0037,0.0016,0.0018,0.0003,-0.0005,-0.001,-0.0023,-0.0038,-0.004,-0.0041,-0.0046,-0.0029,-0.0044,-0.002,-0.0013,-0.0007,0.0003,-0.0001,0.0007,-0.0075,-0.0075,-0.0075,0,0,0.0051,0.0042,0.0045,0.0044,0.0038,0.0058,0.0015,0.0025,0.0039,-0.0009,0.001,-0.0011,-0.0031,-0.0014,-0.001,-0.0026,0.0008,-0.0005,0.0,0.0007,0.0002,0.001,0.0017,-0.0074,-0.0074,-0.0074,0,0,0.0105,0.009,0.011,0.0109,0.0104,0.0095,0.0099,0.0086,0.0078,0.009,0.0058,0.005,0.0048,0.0039,0.0032,0.0073,0.0044,0.0067,0.0116,0.0112,0.0119,0.0125,0.012,0.0125,0.007,0.0071,0.0071,0,0.0132,0.0153,0.0123,0.0145,0.0156,0.0115,0.0148,0.0141,0.0133,0.0138,0.0107,0.0102,0.0074,0.01,0.0103,0.009,0.0082,0.0089,0.0122,0.0127,0.0132,0.0126,0.013,0.0075,0.0074,0.0074,0.0073,0,0.0198,0.0215,0.0233,0.0239,0.0249,0.0272,0.0257,0.026,0.0237,0.023,0.0241,0.0202,0.0197,0.0184,0.0152,0.0176,0.0159,0.0132,0.0105,0.0145,0.0136,0.0139,0.008,0.0079,0.0078,0.0077,0,0,0.0252,0.0272,0.0277,0.0299,0.0298,0.0318,0.0339,0.0355,0.0383,0.0352,0.0393,0.0351,0.0318,0.0307,0.0267,0.0253,0.0264,0.0208,0.0206,0.0209,0.0261,0.0236,0.0236,0.0246,0.0247,0.0248,0.0243,0,0.0309,0.037,0.0362,0.0428,0.0461,0.0434,0.0467,0.0472,0.0466,0.0497,0.0446,0.0473,0.0371,0.0378,0.0341,0.03,0.0276,0.0268,0.0217,0.0215,0.0192,0.024,0.024,0.0235,0.0246,0.0247,0.0247,0,0.0373,0.0404,0.0473,0.0524,0.0537,0.0567,0.0608,0.0636,0.0652,0.0652,0.0642,0.0612,0.0593,0.0504,0.0427,0.0429,0.0344,0.0295,0.0293,0.0246,0.0196,0.0194,0.024,0.0097,0.0251,0.0251,0.0251,0,0.0426,0.0486,0.0544,0.0559,0.0605,0.063,0.0659,0.0682,0.0738,0.0765,0.0819,0.0759,0.0767,0.0656,0.0521,0.0484,0.0444,0.0381,0.0276,0.0273,0.0251,0.0245,0.0158,0.0321,0.0321,0.0321,0.0321,0,0.0489,0.0537,0.0573,0.0604,0.0691,0.0697,0.0795,0.0807,0.0873,0.0986,0.0909,0.099,0.0805,0.0754,0.0595,0.0459,0.0495,0.0301,0.0277,0.0277,0.0273,0.0128,0.0041,0.0321,0.0321,0.0321,0.0321,0,0.054,0.0558,0.0636,0.0692,0.0718,0.0783,0.0897,0.0979,0.1019,0.1167,0.1196,0.1178,0.1117,0.0925,0.0768,0.058,0.0358,0.0377,0.0387,0.0364,0.0109,0.0027,-0.0095,-0.0153,0.0264,0.0263,0.0263,0,0.0572,0.0614,0.0703,0.0766,0.0795,0.0895,0.098,0.1045,0.1153,0.1308,0.1401,0.1383,0.1412,0.1156,0.0825,0.0552,0.0381,0.0347,0.0258,0.0112,0.0002,-0.0069,-0.0114,0.0259,0.0259,0.0259,0.0258,0,0.0641,0.0667,0.0732,0.0858,0.0954,0.108,0.1206,0.1313,0.1433,0.1577,0.1752,0.1797,0.1547,0.1266,0.0851,0.0652,0.0245,0.0329,0.0182,0.0,-0.0085,-0.0156,0.0242,0.0255,0.0255,0.0256,0.0256,0.0256,0.0695,0.0759,0.0848,0.0971,0.109,0.1251,0.1376,0.1541,0.1746,0.197,0.2001,0.2084,0.1634,0.1078,0.0802,0.0231,0.0223,0.0042,-0.0041,-0.0096,-0.0169,0.022,0.0199,0.0199,0.0199,0.0199,0.0199,0,0.0771,0.0844,0.0962,0.1112,0.1253,0.1301,0.1523,0.167,0.1932,0.2116,0.2276,0.2059,0.1574,0.1028,0.0255,-0.0093,-0.0215,-0.0273,-0.0377,-0.0402,-0.0046,-0.0064,-0.0147,-0.0147,-0.0147,-0.0147,-0.0146,-0.0146,0.0817,0.0935,0.0993,0.1221,0.1333,0.1536,0.1669,0.1891,0.2052,0.2261,0.2263,0.2236,0.1757,0.0532,-0.0258,-0.0413,-0.0648,-0.0711,-0.0809,-0.058,-0.0557,-0.0535,-0.0573,-0.0761,-0.0761,-0.1123,-0.1127,-0.113]}],[{"header":{"parameterUnit":"m.s-1","parameterCategory":2,"la1":30.2991,"la2":30.254,"lo1":-89.0895,"lo2":-89.0444,"dy":0.0017,"dx":0.0017,"nx":28,"ny":28,"refTime":"2025-01-11T03:00:00:Z","depth":"2","parameterNumber":2,"parameterNumberName":"U-component_of_CURRENTS"},"data":[0,0,0,0,0,0,0,0,0,0,0,0,0,0,0,0,0,0,0,0,0,0,0,0,0,0,0,0,0,0,0,0,0,0,0,0,0,0,0,0,0,0,0,0,0,0,0,0,0,0,0,0,0,0,0,0,0,0,0.2804,0.2804,0,0.2838,0.2838,0.2838,0.2844,0.2844,0.2844,0.2844,0.2852,0.2852,0.2852,0,0,0,0,0,0,0,0,0,0,0,0,0,0.2744,0.2745,0.2803,0.2804,0.2805,0.2838,0.2838,0.2838,0.2844,0.2844,0.2844,0.2844,0.2852,0.2852,0.2852,0,0,0,0,0,0,0,0,0,0,0,0,0,0.277,0.2745,0.2803,0.2815,0.2817,0.2838,0.2838,0.2838,0.2844,0.2844,0.2844,0.2844,0.2852,0.2852,0.2852,0.2851,0,0,0.2853,0.2853,0,0,0,0,0,0,0,0,0.2768,0.2771,0.2812,0.2814,0.2816,0.2841,0.2821,0.2843,0.2844,0.2829,0.2844,0.2844,0.2848,0.2849,0.285,0.2852,0.2852,0.2853,0.2853,0.2853,0.2853,0,0,0,0,0,0,0,0.2767,0.277,0.2813,0.2813,0.2816,0.282,0.2823,0.2825,0.2834,0.283,0.2832,0.2842,0.2848,0.2849,0.285,0.2852,0.2853,0.2853,0.2853,0.2853,0.2905,0.2906,0,0,0,0,0,0,0.2771,0.2768,0.2812,0.2815,0.2797,0.2821,0.2824,0.2829,0.2835,0.2837,0.2842,0.2843,0.2849,0.2849,0.285,0.2889,0.2853,0.2853,0.2853,0.2903,0.2905,0.2906,0,0,0,0,0,0,0.2769,0.2774,0.2811,0.2796,0.2801,0.2822,0.2827,0.283,0.2843,0.2845,0.2846,0.2854,0.2849,0.285,0.2866,0.2888,0.2853,0.2854,0.2902,0.2904,0.2906,0.2942,0,0,0,0,0,0,0.2767,0.2773,0.2779,0.2796,0.2803,0.2825,0.2828,0.2831,0.285,0.2851,0.2855,0.2855,0.2849,0.2866,0.2867,0.2888,0.2854,0.29,0.2903,0.2905,0.2939,0.2945,0.295,0,0,0,0,0,0.2765,0.2767,0.2779,0.2785,0.281,0.2826,0.2829,0.2842,0.2851,0.2854,0.2866,0.2856,0.2882,0.2867,0.2867,0.2889,0.2899,0.2902,0.2905,0.2937,0.2944,0.295,0,0,0,0,0,0,0.2739,0.2769,0.2782,0.2793,0.2813,0.2829,0.2838,0.285,0.2861,0.2867,0.2866,0.2867,0.2893,0.2887,0.2871,0.2913,0.2891,0.2894,0.2915,0.2922,0.2927,0.2928,0.2854,0,0,0,0,0,0.274,0.2752,0.278,0.2789,0.2803,0.2824,0.2835,0.2847,0.2861,0.2867,0.2876,0.2888,0.2903,0.2909,0.2918,0.2934,0.2951,0.2951,0.2957,0.2961,0.2964,0.3024,0.3035,0.2915,0.2915,0.2915,0,0,0.2731,0.2751,0.2757,0.2785,0.2804,0.2823,0.283,0.2851,0.2868,0.2866,0.2893,0.2907,0.2913,0.2937,0.2948,0.2934,0.3004,0.2965,0.2968,0.2968,0.3028,0.304,0.305,0.2917,0.2917,0.2917,0,0,0.2722,0.2743,0.2753,0.2774,0.281,0.2826,0.2836,0.2866,0.288,0.2909,0.2918,0.2947,0.2964,0.2977,0.2984,0.3024,0.3033,0.303,0.3053,0.3112,0.3122,0.3132,0.3166,0.3178,0.3029,0.3029,0.3029,0,0.2714,0.2733,0.2757,0.2778,0.28,0.283,0.2849,0.2868,0.2899,0.2925,0.2923,0.2986,0.2985,0.3026,0.3037,0.3036,0.3065,0.3026,0.3119,0.3129,0.3138,0.3171,0.3184,0.3031,0.3031,0.3031,0.3031,0,0.2715,0.2737,0.2747,0.2786,0.2809,0.283,0.2867,0.2896,0.2927,0.2955,0.3013,0.3025,0.3068,0.3071,0.3061,0.3125,0.3124,0.3122,0.3102,0.3152,0.3183,0.3196,0.3034,0.3034,0.3033,0.3033,0,0,0.2681,0.2737,0.2742,0.2765,0.2818,0.2834,0.2878,0.2929,0.2973,0.3011,0.3071,0.3098,0.3127,0.3137,0.3141,0.3177,0.3255,0.3175,0.3177,0.3207,0.338,0.3305,0.3312,0.3278,0.3281,0.3283,0.3376,0,0.2679,0.271,0.2745,0.278,0.2802,0.2855,0.2892,0.2945,0.3001,0.3065,0.3107,0.3161,0.3146,0.3175,0.3215,0.3255,0.3292,0.323,0.3329,0.3331,0.3258,0.3325,0.3042,0.3095,0.3388,0.339,0.3392,0,0.2668,0.2694,0.2724,0.2787,0.2803,0.283,0.2914,0.2954,0.3054,0.3104,0.3182,0.3223,0.3293,0.3268,0.3372,0.3339,0.3362,0.338,0.3385,0.331,0.328,0.3094,0.3107,0.3413,0.3411,0.341,0.3408,0,0.2622,0.268,0.2703,0.2723,0.2795,0.2827,0.2873,0.2968,0.3024,0.3139,0.321,0.3296,0.3358,0.3412,0.3458,0.3431,0.3564,0.3536,0.3486,0.348,0.3254,0.3224,0.3605,0.3605,0.3605,0.3605,0.3604,0,0.2599,0.2618,0.2683,0.2693,0.2735,0.2798,0.2866,0.2933,0.3046,0.3125,0.3229,0.3306,0.3401,0.3487,0.3503,0.3544,0.3614,0.3504,0.3509,0.3257,0.3228,0.3511,0.3498,0.3608,0.3607,0.3607,0.3606,0,0.2544,0.2584,0.2615,0.2687,0.2712,0.2742,0.2853,0.2905,0.3029,0.3142,0.3186,0.3346,0.3459,0.3538,0.3632,0.3604,0.3641,0.363,0.3318,0.3284,0.3502,0.3491,0.3589,0.3587,0.3586,0.3584,0.3583,0,0.2516,0.2525,0.2594,0.2611,0.2644,0.2706,0.2748,0.2874,0.2937,0.3152,0.3194,0.3362,0.344,0.3566,0.3549,0.3578,0.3642,0.3317,0.3204,0.351,0.3506,0.3496,0.3487,0.2918,0.2912,0.2907,0.2902,0,0.2469,0.2496,0.2522,0.2556,0.2593,0.2637,0.2709,0.2751,0.2907,0.3008,0.3131,0.3217,0.3362,0.3264,0.3322,0.3294,0.3289,0.3212,0.3637,0.2967,0.2885,0.2879,0.289,0.2856,0.2861,0.2864,0.2867,0.2868,0.2437,0.2439,0.2472,0.2493,0.2532,0.2542,0.2534,0.2613,0.268,0.2785,0.2952,0.2994,0.3047,0.2991,0.2911,0.2853,0.3076,0.2919,0.2932,0.2951,0.2857,0.2778,0.271,0.2714,0.2717,0.272,0.2722,0,0.2386,0.2392,0.2406,0.2415,0.24,0.2462,0.2484,0.2445,0.2449,0.2581,0.2656,0.2488,0.2446,0.251,0.2346,0.2347,0.2296,0.225,0.2145,0.2195,0.2238,0.2103,0.1759,0.1756,0.1753,0.175,0,0,0.2362,0.2339,0.2331,0.2272,0.2281,0.2228,0.2205,0.2154,0.2187,0.2159,0.2165,0.2371,0.2457,0.2085,0.2032,0.1864,0.2015,0.1795,0.2574,0.2503,0.2541,0.2638,0.249,0,0,0,0,0]},{"header":{"parameterUnit":"m.s-1","parameterCategory":2,"la1":30.2991,"la2":30.254,"lo1":-89.0895,"lo2":-89.0444,"dy":0.0017,"dx":0.0017,"nx":28,"ny":28,"refTime":"2025-01-11T03:00:00:Z","depth":"2","parameterNumber":3,"parameterNumberName":"V-component_of_CURRENTS"},"data":[0,0,0,0,0,0,0,0,0,0,0,0,0,0,0,0,0,0,0,0,0,0,0,0,0,0,0,0,0,0,0,0,0,0,0,0,0,0,0,0,0,0,0,0,0,0,0,0,0,0,0,0,0,0,0,0,0,0,0.0118,0.0118,0,0.0088,0.0088,0.0087,0.0067,0.0067,0.0067,0.0067,0.0047,0.0047,0.0047,0,0,0,0,0,0,0,0,0,0,0,0,0,0.0136,0.0136,0.0118,0.0118,0.0118,0.0088,0.0088,0.0087,0.0067,0.0067,0.0067,0.0067,0.0048,0.0047,0.0046,0,0,0,0,0,0,0,0,0,0,0,0,0,0.0119,0.0136,0.0118,0.0105,0.0103,0.0088,0.0088,0.0087,0.0067,0.0067,0.0067,0.0067,0.0048,0.0047,0.0046,0.0043,0,0,0.0044,0.0044,0,0,0,0,0,0,0,0,0.012,0.0118,0.0107,0.0106,0.0104,0.0082,0.0087,0.0073,0.0067,0.0079,0.0067,0.0067,0.0061,0.0059,0.0052,0.0042,0.0041,0.0044,0.0044,0.0043,0.0043,0,0,0,0,0,0,0,0.0121,0.0119,0.0105,0.0107,0.0105,0.0093,0.0091,0.0084,0.007,0.0078,0.0077,0.0076,0.006,0.0052,0.0051,0.0041,0.0044,0.0044,0.0043,0.0043,0.0033,0.0034,0,0,0,0,0,0,0.0128,0.012,0.0106,0.0104,0.0113,0.0093,0.009,0.0088,0.007,0.0067,0.0076,0.0075,0.0054,0.0052,0.0051,0.0066,0.0043,0.0043,0.0042,0.0033,0.0033,0.0034,0,0,0,0,0,0,0.0129,0.0127,0.0107,0.0112,0.0109,0.0093,0.0091,0.0088,0.0082,0.0068,0.0065,0.0074,0.0054,0.0052,0.0052,0.0065,0.0042,0.0042,0.0033,0.0033,0.0034,0.0085,0,0,0,0,0,0,0.0129,0.0127,0.0127,0.0113,0.0109,0.0107,0.0091,0.0087,0.0082,0.0081,0.0066,0.0064,0.0053,0.0053,0.0051,0.0063,0.0041,0.0033,0.0033,0.0033,0.0083,0.0087,0.009,0,0,0,0,0,0.013,0.0136,0.0127,0.0126,0.011,0.0107,0.0104,0.0092,0.0082,0.0085,0.0075,0.0064,0.0053,0.0053,0.005,0.0063,0.0033,0.0033,0.0033,0.0081,0.0086,0.009,0,0,0,0,0,0,0.0146,0.0134,0.0124,0.0126,0.012,0.0105,0.0106,0.0094,0.0087,0.0085,0.0069,0.0067,0.007,0.0057,0.0057,0.0059,0.004,0.004,0.0077,0.0082,0.0085,0.0101,0.0041,0,0,0,0,0,0.0149,0.0149,0.0136,0.0138,0.0136,0.012,0.0116,0.0108,0.0099,0.0095,0.0086,0.0075,0.0069,0.0069,0.006,0.0064,0.0044,0.0068,0.0072,0.0075,0.0085,0.0065,0.0068,0.0035,0.0035,0.0035,0,0,0.0155,0.0149,0.0149,0.0141,0.0134,0.0146,0.0117,0.0117,0.0128,0.0095,0.0108,0.0088,0.0072,0.0077,0.0077,0.0069,0.0071,0.0076,0.0079,0.0087,0.0066,0.0069,0.0072,0.0035,0.0035,0.0035,0,0,0.018,0.0164,0.0176,0.0175,0.0168,0.0162,0.0165,0.0153,0.0148,0.0151,0.0132,0.0121,0.0113,0.0105,0.01,0.0117,0.009,0.0111,0.0147,0.0127,0.013,0.0132,0.0103,0.0103,0.0115,0.0115,0.0115,0,0.0188,0.0203,0.018,0.0197,0.0205,0.0175,0.02,0.0191,0.0181,0.0185,0.0164,0.0149,0.0128,0.014,0.0141,0.0127,0.0108,0.0134,0.0133,0.0135,0.0136,0.0106,0.0105,0.0118,0.0117,0.0117,0.0117,0,0.0227,0.0239,0.0248,0.0261,0.0265,0.0278,0.0269,0.0268,0.0253,0.0248,0.0247,0.0212,0.0205,0.0191,0.0171,0.0176,0.0155,0.0139,0.0125,0.0143,0.0109,0.0107,0.0121,0.012,0.012,0.0119,0,0,0.025,0.0272,0.0275,0.0299,0.0301,0.0314,0.0327,0.0339,0.036,0.0329,0.0352,0.0317,0.029,0.0281,0.0248,0.0225,0.0205,0.0189,0.0187,0.0167,0.0156,0.0127,0.0121,0.0191,0.0191,0.0191,0.0125,0,0.0291,0.034,0.0338,0.039,0.0419,0.04,0.0423,0.0426,0.0419,0.0431,0.0384,0.0391,0.0328,0.0325,0.029,0.0236,0.0203,0.0224,0.0136,0.0134,0.0112,0.0119,0.0145,0.0089,0.0123,0.0123,0.0122,0,0.0337,0.0365,0.0421,0.0466,0.0477,0.0501,0.0534,0.0553,0.0553,0.0546,0.0529,0.0493,0.0459,0.0399,0.0306,0.0323,0.0243,0.0187,0.0183,0.014,0.0101,0.0077,0.0083,0.0118,0.0118,0.0118,0.0119,0,0.0378,0.0429,0.0478,0.0492,0.0531,0.0552,0.0575,0.0589,0.0627,0.0624,0.0649,0.0587,0.0572,0.0466,0.0336,0.0324,0.0228,0.0197,0.0092,0.0089,0.0086,0.0083,0.0124,0.0124,0.0124,0.0125,0.0125,0,0.0427,0.0468,0.0502,0.0529,0.06,0.0606,0.068,0.0687,0.0723,0.0791,0.0717,0.0745,0.0589,0.0511,0.0374,0.023,0.0252,0.0102,0.0074,0.0103,0.0101,0.0109,0.0108,0.0122,0.0123,0.0123,0.0124,0,0.0466,0.0484,0.055,0.0599,0.0621,0.0674,0.076,0.0817,0.0835,0.0919,0.0926,0.0871,0.0771,0.0602,0.0433,0.0294,0.0149,0.0087,0.0124,0.0101,0.001,0.0012,-0.0032,-0.0034,-0.0035,-0.0036,-0.0037,0,0.0491,0.0527,0.0605,0.0654,0.0679,0.0759,0.0823,0.0868,0.0941,0.1005,0.1053,0.098,0.0944,0.0676,0.0424,0.0181,0.0144,0.0028,0.0004,0.0019,-0.0004,0.0,0.0004,0.0014,0.0014,0.0014,0.0013,0,0.0542,0.0566,0.062,0.072,0.0794,0.0894,0.0987,0.106,0.1131,0.1197,0.1255,0.1228,0.0988,0.0744,0.0403,0.0235,0.0068,0.0013,0.0032,0.005,0.0057,0.0036,0.004,0.0011,0.0011,0.0011,0.0011,0.0011,0.0581,0.0629,0.0699,0.0797,0.089,0.101,0.1102,0.1204,0.1323,0.1424,0.1394,0.1366,0.1083,0.0657,0.0358,0.0047,0.0062,-0.0058,-0.0055,-0.0052,-0.0034,-0.003,-0.009,-0.009,-0.0091,-0.0091,-0.0091,0,0.0632,0.0685,0.0775,0.0891,0.0997,0.1042,0.1201,0.1294,0.1433,0.1514,0.1552,0.1291,0.1022,0.0703,0.025,-0.0033,-0.0049,-0.013,-0.0084,-0.0079,-0.0075,-0.0057,-0.012,-0.0121,-0.0122,-0.0123,0,0,0.0659,0.0743,0.0785,0.0953,0.1045,0.1197,0.1292,0.1417,0.1508,0.1573,0.1564,0.1518,0.1134,0.0794,0.0411,0.0151,0.0099,0.0094,0.0148,0.0254,0.0261,-0.0002,0.0034,0,0,0,0,0]}],[{"header":{"parameterUnit":"m.s-1","parameterCategory":2,"la1":30.2991,"la2":30.254,"lo1":-89.0895,"lo2":-89.0444,"dy":0.0017,"dx":0.0017,"nx":28,"ny":28,"refTime":"2025-01-11T03:00:00:Z","depth":"4","parameterNumber":2,"parameterNumberName":"U-component_of_CURRENTS"},"data":[0,0,0,0,0,0,0,0,0,0,0,0,0,0,0,0,0,0,0,0,0,0,0,0,0,0,0,0,0,0,0,0,0,0,0,0,0,0,0,0,0,0,0,0,0,0,0,0,0,0,0,0,0,0,0,0,0,0,0.1744,0.1745,0,0.1807,0.1807,0.1808,0.187,0.1871,0.1871,0.1872,0.1953,0.1955,0.1956,0,0,0,0,0,0,0,0,0,0,0,0,0,0.1668,0.1669,0.1744,0.1745,0.1746,0.1807,0.1807,0.1808,0.1869,0.1871,0.1872,0.1873,0.1953,0.1954,0.1956,0,0,0,0,0,0,0,0,0,0,0,0,0,0.1712,0.1669,0.1744,0.1785,0.1789,0.1806,0.1807,0.1808,0.1869,0.1871,0.1872,0.1873,0.1952,0.1954,0.1956,0.1941,0,0,0.1962,0.1963,0,0,0,0,0,0,0,0,0.1709,0.1714,0.1778,0.1782,0.1787,0.1833,0.181,0.1854,0.1869,0.1838,0.1872,0.1874,0.1914,0.1919,0.1926,0.1945,0.1948,0.1962,0.1964,0.1964,0.1965,0,0,0,0,0,0,0,0.1706,0.1712,0.1768,0.1779,0.1784,0.1796,0.1804,0.1818,0.1867,0.1841,0.1845,0.1854,0.1917,0.1924,0.1929,0.1949,0.1962,0.1964,0.1965,0.1966,0.2077,0.2079,0,0,0,0,0,0,0.17,0.1709,0.1766,0.177,0.1752,0.1797,0.1805,0.1816,0.1867,0.1876,0.1852,0.1856,0.192,0.1926,0.1932,0.2022,0.1964,0.1966,0.1967,0.2076,0.2078,0.208,0,0,0,0,0,0,0.1698,0.1704,0.1764,0.1742,0.175,0.1797,0.1808,0.1816,0.1864,0.1876,0.1885,0.1896,0.1922,0.1929,0.1982,0.2022,0.1967,0.1969,0.2074,0.2076,0.2079,0.2136,0,0,0,0,0,0,0.1695,0.1703,0.1727,0.1741,0.1751,0.18,0.1807,0.1817,0.1864,0.1871,0.1915,0.1922,0.1923,0.1979,0.1984,0.2024,0.197,0.2071,0.2075,0.2078,0.2132,0.214,0.2147,0,0,0,0,0,0.1692,0.1712,0.1728,0.1736,0.1777,0.1801,0.1808,0.1844,0.1866,0.1891,0.1925,0.1923,0.2004,0.1982,0.1987,0.2029,0.207,0.2074,0.2078,0.2128,0.2138,0.2147,0,0,0,0,0,0,0.1694,0.172,0.1738,0.1767,0.1796,0.1813,0.1844,0.1864,0.191,0.1931,0.1941,0.195,0.2012,0.2012,0.1987,0.2072,0.2038,0.2043,0.2075,0.2084,0.2092,0.2085,0.1972,0,0,0,0,0,0.1703,0.1728,0.1751,0.178,0.1798,0.1829,0.1851,0.1876,0.1907,0.1931,0.1961,0.1995,0.2025,0.2049,0.2073,0.2115,0.2118,0.2147,0.2155,0.2161,0.2161,0.2212,0.2224,0.2093,0.2093,0.2093,0,0,0.1712,0.1731,0.1747,0.1784,0.1811,0.1838,0.1847,0.1893,0.1925,0.1931,0.1999,0.2026,0.2043,0.2094,0.2122,0.2105,0.2201,0.2167,0.2172,0.2168,0.2217,0.223,0.2241,0.2096,0.2095,0.2095,0,0,0.1726,0.1762,0.1784,0.1811,0.1858,0.1874,0.1895,0.1937,0.1972,0.2028,0.2044,0.2096,0.2143,0.2163,0.2176,0.224,0.2241,0.2258,0.2294,0.2344,0.2355,0.2365,0.2382,0.2393,0.2262,0.2262,0.2262,0,0.1742,0.1768,0.1797,0.1824,0.1851,0.1893,0.1923,0.1957,0.2014,0.2048,0.2063,0.2155,0.2172,0.2227,0.2252,0.2258,0.2278,0.2255,0.2354,0.2364,0.2373,0.2388,0.2399,0.2266,0.2265,0.2265,0.2265,0,0.1759,0.1797,0.1816,0.1862,0.1895,0.1932,0.1974,0.2026,0.2076,0.211,0.2196,0.2227,0.2283,0.23,0.2295,0.2371,0.2361,0.2358,0.2327,0.2389,0.2401,0.2412,0.227,0.2269,0.2268,0.2267,0,0,0.1747,0.1815,0.1826,0.1855,0.1921,0.1943,0.2009,0.207,0.2123,0.2194,0.2261,0.2322,0.2358,0.2374,0.2389,0.2427,0.2505,0.2425,0.2426,0.2436,0.2605,0.2435,0.243,0.2529,0.2532,0.2533,0.2586,0,0.1757,0.1805,0.1841,0.1898,0.1925,0.1987,0.2038,0.2105,0.2173,0.225,0.2308,0.2379,0.2381,0.2423,0.2467,0.25,0.2537,0.2489,0.2548,0.2549,0.2386,0.2438,0.2541,0.2594,0.2596,0.2598,0.2599,0,0.1753,0.1788,0.1842,0.1914,0.1935,0.198,0.2077,0.2131,0.224,0.23,0.2389,0.2437,0.2518,0.2507,0.2603,0.258,0.26,0.2613,0.2616,0.2441,0.2398,0.2521,0.2618,0.2617,0.2615,0.2614,0.2613,0,0.1706,0.1785,0.1828,0.1854,0.1942,0.1993,0.2052,0.2157,0.2216,0.2345,0.2409,0.2507,0.2577,0.2626,0.267,0.2654,0.2755,0.2734,0.2594,0.2582,0.2694,0.2683,0.2796,0.2796,0.2796,0.2796,0.2795,0,0.1677,0.1717,0.1817,0.1838,0.1903,0.1978,0.2062,0.214,0.2257,0.2326,0.244,0.2502,0.2618,0.2686,0.2701,0.2677,0.2791,0.26,0.2588,0.2716,0.2707,0.2701,0.2689,0.2798,0.2797,0.2797,0.2796,0,0.1612,0.1679,0.1734,0.1841,0.1881,0.1931,0.206,0.211,0.2243,0.2339,0.2387,0.2535,0.2616,0.2694,0.2776,0.2704,0.2701,0.2665,0.2792,0.2787,0.2483,0.2474,0.2498,0.2492,0.2487,0.2484,0.248,0,0.1578,0.1602,0.1724,0.1759,0.1816,0.1903,0.1953,0.209,0.2142,0.233,0.2357,0.2499,0.2575,0.2549,0.2645,0.2653,0.2626,0.2599,0.253,0.2467,0.2455,0.2453,0.2451,0.2473,0.2472,0.247,0.2469,0,0.1513,0.1576,0.1622,0.1693,0.1756,0.1806,0.1894,0.1918,0.2068,0.2216,0.2266,0.2307,0.2392,0.244,0.2473,0.2475,0.2597,0.2549,0.2558,0.2494,0.2438,0.2429,0.2432,0.2453,0.2455,0.2457,0.2458,0,0.1473,0.1488,0.1558,0.1603,0.1673,0.1677,0.1738,0.1788,0.1856,0.206,0.2073,0.2221,0.2366,0.2349,0.2378,0.2368,0.2324,0.2233,0.2257,0.2276,0.2179,0.2074,0.1967,0,0,0,0,0,0.1422,0.1418,0.1455,0.1483,0.1543,0.1579,0.1678,0.1741,0.1891,0.187,0.1964,0.2027,0.2072,0.2152,0.2097,0.2279,0.2334,0.2203,0.2241,0.2364,0.2382,0.2288,0,0,0,0,0,0,0.1383,0.1418,0.1415,0.137,0.1366,0.1406,0.146,0.156,0.1555,0.1727,0.1764,0.1897,0.1977,0.2085,0.2058,0.2081,0.2058,0.2301,0.2295,0.2353,0.237,0.2385,0.2295,0,0,0,0,0]},{"header":{"parameterUnit":"m.s-1","parameterCategory":2,"la1":30.2991,"la2":30.254,"lo1":-89.0895,"lo2":-89.0444,"dy":0.0017,"dx":0.0017,"nx":28,"ny":28,"refTime":"2025-01-11T03:00:00:Z","depth":"4","parameterNumber":3,"parameterNumberName":"V-component_of_CURRENTS"},"data":[0,0,0,0,0,0,0,0,0,0,0,0,0,0,0,0,0,0,0,0,0,0,0,0,0,0,0,0,0,0,0,0,0,0,0,0,0,0,0,0,0,0,0,0,0,0,0,0,0,0,0,0,0,0,0,0,0,0,0.0141,0.0141,0,0.0123,0.0123,0.0123,0.0115,0.0115,0.0115,0.0115,0.0106,0.0105,0.0105,0,0,0,0,0,0,0,0,0,0,0,0,0,0.0152,0.0152,0.0141,0.0141,0.0141,0.0123,0.0123,0.0123,0.0115,0.0115,0.0115,0.0115,0.0106,0.0105,0.0105,0,0,0,0,0,0,0,0,0,0,0,0,0,0.0141,0.0152,0.0141,0.0136,0.0135,0.0123,0.0123,0.0123,0.0115,0.0115,0.0115,0.0115,0.0106,0.0105,0.0105,0.0098,0,0,0.0103,0.0103,0,0,0,0,0,0,0,0,0.0142,0.0141,0.0137,0.0136,0.0135,0.0122,0.0123,0.0115,0.0115,0.0122,0.0115,0.0115,0.0112,0.0111,0.0106,0.0098,0.0098,0.0103,0.0103,0.0103,0.0102,0,0,0,0,0,0,0,0.0143,0.0141,0.0133,0.0137,0.0136,0.0128,0.0127,0.0121,0.0116,0.0121,0.0121,0.012,0.0112,0.0107,0.0106,0.0097,0.0103,0.0103,0.0102,0.0102,0.0092,0.0092,0,0,0,0,0,0,0.0147,0.0142,0.0134,0.0133,0.014,0.0128,0.0126,0.0126,0.0116,0.0115,0.012,0.012,0.0108,0.0107,0.0106,0.0117,0.0103,0.0102,0.0102,0.0092,0.0092,0.0092,0,0,0,0,0,0,0.0148,0.0147,0.0135,0.0138,0.0136,0.0128,0.0127,0.0125,0.0124,0.0115,0.0114,0.0121,0.0108,0.0106,0.0108,0.0116,0.0102,0.0101,0.0092,0.0092,0.0092,0.0127,0,0,0,0,0,0,0.0148,0.0147,0.0148,0.0138,0.0136,0.0133,0.0127,0.0125,0.0123,0.0123,0.0115,0.0114,0.0108,0.0108,0.0107,0.0115,0.0101,0.0092,0.0092,0.0092,0.0126,0.0129,0.0131,0,0,0,0,0,0.0148,0.0151,0.0148,0.0147,0.0138,0.0133,0.0132,0.0126,0.0123,0.0124,0.0121,0.0114,0.0108,0.0108,0.0106,0.0114,0.0092,0.0092,0.0092,0.0125,0.0128,0.0131,0,0,0,0,0,0,0.0156,0.0151,0.0147,0.0148,0.0143,0.0133,0.0133,0.0128,0.0125,0.0126,0.0117,0.0116,0.0118,0.011,0.011,0.011,0.0098,0.0098,0.0123,0.0126,0.0128,0.0139,0.0101,0,0,0,0,0,0.0158,0.016,0.0152,0.0153,0.0152,0.0143,0.014,0.0137,0.0132,0.0131,0.0127,0.0121,0.0116,0.0117,0.011,0.0112,0.0091,0.0115,0.0117,0.0119,0.0125,0.01,0.01,0.0093,0.0093,0.0093,0,0,0.0162,0.0159,0.0159,0.0155,0.0151,0.0159,0.0142,0.0141,0.0151,0.013,0.0142,0.0128,0.0117,0.012,0.0121,0.0116,0.0107,0.0119,0.0121,0.0126,0.01,0.0101,0.0101,0.0093,0.0093,0.0093,0,0,0.0175,0.0167,0.0175,0.0175,0.0173,0.017,0.0172,0.0165,0.0164,0.0168,0.0156,0.0148,0.0144,0.0138,0.0134,0.0144,0.0118,0.014,0.0165,0.014,0.014,0.014,0.0105,0.0102,0.0144,0.0144,0.0144,0,0.0178,0.0191,0.0177,0.0188,0.0196,0.0179,0.0196,0.0191,0.0186,0.019,0.0177,0.0166,0.0153,0.0159,0.016,0.015,0.0128,0.0157,0.0143,0.0143,0.0143,0.0106,0.0102,0.0146,0.0145,0.0145,0.0145,0,0.0202,0.0213,0.0218,0.0231,0.0235,0.0245,0.0241,0.0242,0.0236,0.0233,0.0232,0.0207,0.0203,0.0192,0.018,0.0175,0.0156,0.0147,0.0138,0.0146,0.0106,0.0102,0.0148,0.0148,0.0147,0.0147,0,0,0.021,0.0232,0.0235,0.0255,0.0261,0.027,0.0282,0.0292,0.0308,0.0287,0.0301,0.0277,0.026,0.0253,0.023,0.0205,0.0174,0.0178,0.0176,0.0147,0.0109,0.0091,0.0083,0.0163,0.0163,0.0163,0.0079,0,0.0236,0.0272,0.0275,0.0315,0.0337,0.033,0.0348,0.0353,0.0349,0.0355,0.0319,0.0323,0.0285,0.0283,0.0251,0.0198,0.0165,0.0197,0.0103,0.01,0.0086,0.0079,0.0162,0.0075,0.0074,0.0073,0.0073,0,0.0263,0.0286,0.0329,0.0369,0.0378,0.0399,0.0429,0.0444,0.0441,0.0437,0.0423,0.0395,0.0361,0.0322,0.0231,0.0254,0.0186,0.0134,0.013,0.01,0.0074,0.0068,0.0064,0.0065,0.0065,0.0066,0.0066,0,0.0286,0.0328,0.0368,0.038,0.0416,0.0436,0.0459,0.0471,0.0498,0.0492,0.0503,0.0452,0.0433,0.0343,0.0234,0.0234,0.0122,0.0109,0.0023,0.002,0.0047,0.0048,0.0037,0.0037,0.0038,0.0038,0.0038,0,0.0314,0.0347,0.0385,0.0406,0.0463,0.0476,0.0534,0.0541,0.0565,0.0606,0.0553,0.0556,0.0438,0.036,0.025,0.0122,0.0132,0.0024,-0.0,0.0062,0.0065,0.0043,0.0044,0.0035,0.0035,0.0036,0.0037,0,0.0332,0.0353,0.0407,0.0455,0.0477,0.052,0.0592,0.0633,0.0646,0.0692,0.0693,0.0636,0.0534,0.04,0.0249,0.0152,0.0025,-0.0026,0.0044,0.0024,-0.0067,-0.0063,-0.0127,-0.0129,-0.013,-0.0131,-0.0131,0,0.0343,0.0371,0.0444,0.0486,0.0511,0.0579,0.0631,0.067,0.0717,0.074,0.0761,0.068,0.0621,0.0397,0.0245,0.0029,-0.0004,-0.0079,-0.0071,-0.0065,-0.0083,-0.0077,-0.0071,-0.0133,-0.0133,-0.0134,-0.0134,0,0.0365,0.0392,0.0435,0.0521,0.0584,0.0663,0.0736,0.0775,0.0823,0.0834,0.0818,0.0704,0.0584,0.0401,0.0231,0.0075,-0.0034,-0.0091,-0.009,-0.0083,-0.0073,-0.0088,-0.0081,-0.0138,-0.0137,-0.0137,-0.0137,0,0.0382,0.0417,0.0477,0.0554,0.0638,0.072,0.076,0.0813,0.0856,0.0876,0.0864,0.0735,0.0661,0.0424,0.0268,0.0112,0.007,0.0012,0.0007,0.0009,0.007,0.0104,0.0073,0,0,0,0,0,0.0398,0.0438,0.0508,0.0593,0.0678,0.073,0.082,0.0854,0.0896,0.0894,0.0884,0.0771,0.0545,0.0446,0.0287,0.0233,0.0032,0.0039,-0.0039,-0.0159,-0.0155,-0.0108,0,0,0,0,0,0,0.0407,0.0469,0.0503,0.061,0.0675,0.0773,0.0834,0.0867,0.0865,0.088,0.0764,0.0716,0.0497,0.0636,0.0279,0.0232,0.0157,-0.0063,-0.0067,-0.0162,-0.0158,-0.0154,-0.0105,0,0,0,0,0]}]]